Location: Central Falls
(41.8900°N, 71.3929°W)
Time: 15:27:08
(UTC+00:00)

Vanguard 1 - Pass Details

Date: 07 December 2023
Orbit: 653 x 3826 km, 34.3° (Epoch: 24 February)

Event Time Altitude Azimuth Distance (km) Brightness Sun altitude
Rises 23:51:31 0° 255° (WSW) 5,867 15.2 -28.5°
Reaches altitude 10° 23:54:45 10° 253° (WSW) 5,198 14.6 -29.1°
Maximum altitude 00:11:40 69° 175° (S) 3,653 12.7 -32.2°
Enters shadow 00:21:15 45° 111° (ESE) 4,603 12.9 -34.0°
Drops below altitude 10° 00:35:04 10° 99° (E) 6,850 - -36.6°
Sets 00:40:08 0° 97° (E) 7,726 - -37.5°
